TIME,DELAY(SENSOR),PRES,T(CTD),SAL,OXYGEN,RAWTEMP,T(OPTODE),TCPHASE,FLUOR,BETA(BETA700),BETA(BETA412),BETA(BETA440),CDOM,C(CSC),ED(ED412.40),ED(ED444.00),ED(ED489.70),ED(ED554.30),LU(LU411.80),LU(LU443.40),LU(LU489.60),LU(LU554.10),COMP,TILTX,TILTX(TILTY),CHECK
1334266739,5809,494.1400146484375000,7.0139999389648440,34.1911010742187500,71.2382812500000000,587.3541870117188000,6.9920158386230470,49.7897300720214840,52,110,93,81,82,15235,2147750893,2147421019,2148002761,2147873115,2147626898,2147083264,2148242880,2147208502,826,4,13,23860
1334266850,5804,482.6600036621094000,7.1718997955322270,34.1817016601562500,75.8473205566406200,582.4926147460938000,7.1483798027038570,49.1507186889648440,51,107,91,80,79,15235,2147747684,2147420132,2148002907,2147872329,2147627812,2147086701,2148240841,2147206820,681,4,13,20155
1334266949,5809,471.4700012207031000,7.2965002059936520,34.1613006591796900,83.3280334472656200,578.2059936523438000,7.2860717773437500,48.1988410949707000,52,109,86,81,80,15232,2147748525,2147420086,2148001472,2147870966,2147626084,2147081673,2148244580,2147203684,1464,4,13,63885
1334267048,5808,460.5799865722656000,7.4004001617431640,34.1498985290527340,94.6674194335937500,575.1779174804688000,7.3832402229309080,46.8759193420410160,51,110,91,81,81,15232,2147748562,2147421412,2148000493,2147872960,2147623113,2147091264,2148242130,2147204233,1891,4,13,22574
1334267153,5807,450.3399963378906000,7.5658998489379880,34.1445007324218750,101.6280975341796900,569.8585815429688000,7.5537300109863280,46.0491790771484400,51,110,92,82,79,15236,2147747099,2147423058,2148000027,2147873682,2147626843,2147085549,2148240091,2147205357,2684,4,13,46436
1334267274,5807,439.4500122070312500,7.7322001457214355,34.1366996765136700,107.3901977539062500,564.9940795898438000,7.7094249725341800,45.3745117187500000,51,110,89,81,78,15234,2147748516,2147421138,2148000118,2147872768,2147623954,2147088649,2148241865,2147204516,3487,4,13,60022
1334267408,5811,428.6799926757812500,7.9109001159667970,34.1271018981933600,118.3210983276367200,559.5712280273438000,7.8827528953552250,44.2025184631347660,51,110,91,81,79,15230,2147748790,2147422144,2147998884,2147875529,2147622454,2147085622,2148241526,2147208347,762,4,13,2084
1334267584,5808,418.5799865722656000,8.3631000518798830,34.1349983215332000,129.6656951904297000,545.0424194335938000,8.3459110260009770,42.8997688293457000,50,115,93,82,78,15229,2147743076,2147420352,2148002212,2147872521,2147619977,2147092406,2148235026,2147206308,885,4,13,5035
1334267769,5809,407.3200073242187500,8.6262998580932620,34.1533012390136700,133.6575012207031200,536.7213745117188000,8.6103954315185550,42.3990097045898440,50,117,92,82,77,15220,2147746294,2147420982,2147997988,2147875081,2147620608,2147093558,2148232557,2147206363,1006,4,13,2408
1334267934,5809,395.5000000000000000,8.9813995361328120,34.1486015319824200,142.9358978271484400,525.4962768554688000,8.9663200378417970,41.4026603698730500,50,113,89,82,77,15219,2147739684,2147420178,2147997211,2147874688,2147618121,2147098861,2148233801,2147208576,2405,4,13,4117
1334268057,5808,384.3800048828125000,9.2548999786376950,34.1453018188476560,150.8013000488281200,516.2086181640625000,9.2600908279418950,40.5925483703613300,50,116,92,82,76,15220,2147741156,2147420507,2148001005,2147869778,2147616960,2147102043,2148235117,2147210148,3411,4,13,54694
1334268167,5810,372.3699951171875000,9.9350004196167000,34.1361999511718750,171.6750030517578000,494.9565124511719000,9.9299278259277340,38.6318092346191400,50,114,93,82,74,15222,2147736603,2147420772,2147999158,2147871158,2147614884,2147103488,2148229814,2147209874,1565,4,12,46929
1334268266,5810,361.8999938964844000,10.3708000183105470,34.1531982421875000,183.1354064941406200,481.7396850585937500,10.3449401855468750,37.6063995361328100,49,112,90,80,73,15224,2147740909,2147419154,2148002761,2147874742,2147611958,2147111552,2148228141,2147207762,798,4,13,55258
1334268383,5808,350.4899902343750000,10.7606000900268550,34.1562004089355500,196.2666931152343800,469.1523132324219000,10.7391300201416020,36.5393714904785160,50,110,89,79,72,15228,2147740096,2147422070,2148004406,2147871387,2147611163,2147110125,2148219282,2147210880,1390,4,13,29278
1334268526,5808,339.9599914550781000,10.8947000503540040,34.1561012268066400,203.8876037597656200,464.3689880371094000,10.8886604309082030,35.9916687011718750,48,106,89,81,73,15228,2147734939,2147419382,2148002368,2147869421,2147607579,2147115437,2148224521,2147214692,1566,4,13,26919
1334268689,5809,328.0799865722656000,11.0361003875732420,34.1635017395019500,206.4815979003906200,459.9737854003906000,11.0259399414062500,35.7643013000488300,50,109,92,81,71,15230,2147734729,2147423524,2148006774,2147873472,2147608310,2147111734,2148218898,2147211081,1453,3,14,35028
1334268810,5803,317.7900085449219000,11.3957996368408200,34.1875000000000000,205.8905944824218800,447.5859985351562500,11.4122495651245120,35.5976982116699200,49,110,90,81,73,15221,2147734729,2147421933,2148006939,2147871680,2147604708,2147120923,2148224182,2147211483,2617,3,13,1665
1334268945,5811,306.9200134277344000,12.1408996582031250,34.2300987243652340,204.2635040283203000,423.5780029296875000,12.1585397720336910,35.3085403442382800,50,109,93,80,72,15222,2147729874,2147427044,2148015222,2147872576,2147601865,2147120109,2148219721,2147212525,2690,3,14,49835
1334269088,5811,295.3900146484375000,12.6381998062133790,34.2523002624511700,210.1828002929687500,408.7792968750000000,12.6170997619628900,34.7276306152343750,49,104,88,79,70,15228,2147726829,2147428160,2148022802,2147870701,2147601837,2147126555,2148224768,2147211830,2295,3,14,17712
1334269220,5809,284.4100036621094000,13.0466003417968750,34.2480010986328100,200.8625946044922000,394.9729003906250000,13.0439996719360350,35.0626602172851560,49,109,90,80,72,15225,2147730761,2147429440,2148032996,2147873005,2147598043,2147137124,2148226002,2147213494,1267,3,13,11124
1334269365,5807,273.7099914550781000,13.5046997070312500,34.2897987365722660,193.8777008056640600,380.6051025390625000,13.4873895645141600,35.2695884704589840,49,109,89,80,71,15222,2147726729,2147436406,2148047030,2147869997,2147597376,2147139245,2148231835,2147215085,1993,4,14,11996
1334269541,5808,263.1199951171875000,14.2617998123168950,34.3531990051269500,192.3448944091797000,357.8284912109375000,14.1886701583862300,35.0154991149902340,49,108,91,80,69,15227,2147724178,2147442386,2148070217,2147874596,2147590912,2147146020,2148234230,2147213485,646,4,14,23489
1334269706,5805,250.9600067138672000,14.9120998382568360,34.3740997314453100,184.9008026123047000,334.0379943847656000,14.9193401336669920,35.1331901550293000,50,105,91,82,70,15223,2147725220,2147459163,2148108141,2147872667,2147589805,2147160073,2148249106,2147211638,965,3,14,9402
1334269827,5810,241.0500030517578000,16.0844001770019530,34.5816993713378900,200.6835937500000000,296.4609069824219000,16.0704803466796880,33.5860710144043000,49,105,90,80,68,15223,2147724672,2147474660,2148158454,2147875547,2147585078,2147169142,2148266642,2147217563,938,3,14,42838
1334269971,5808,229.7700042724609400,16.8243999481201170,34.6739006042480500,214.0005950927734400,270.9749145507812500,16.8497505187988280,32.4595489501953100,50,109,88,81,65,15222,2147730742,2147503954,2148224411,2147873161,2147583488,2147199798,2148296237,2147223524,2708,2,15,19266
1334270114,5804,218.8899993896484400,17.6816005706787100,34.7521018981933600,211.8865051269531200,243.9371948242187500,17.6757106781005860,32.1940689086914060,50,105,91,81,68,15215,2147735570,2147548461,2148318564,2147873682,2147584146,2147232896,2148339977,2147226486,2077,3,14,30215
1334270280,5808,204.9600067138672000,18.9664001464843750,34.8745002746582000,207.3939056396484400,201.8825073242187500,18.9600791931152340,31.8592796325683600,59,111,91,82,67,15206,2147766601,2147647414,2148518902,2147873490,2147592640,2147286445,2148420708,2147235181,3263,3,16,18387
1334272291,5808,99.0999984741211000,23.9426994323730470,35.2179985046386700,240.9626007080078000,39.8001213073730500,23.9388809204101560,28.0713996887207030,83,120,92,84,59,15108,2172784530,2179744128,2183604900,2148592448,2162515922,2165707218,2165889408,2148808009,1868,1,17,43285
1334272368,5811,97.2500000000000000,23.9715995788574220,35.1892013549804700,239.8186950683593800,38.8202781677246100,23.9692592620849600,28.1104602813720700,81,120,93,84,60,15108,2174526281,2181616118,2185262345,2148686125,2163625462,2166936914,2166846811,2148902299,2061,1,17,50914
1334272456,5808,94.5999984741211000,24.0342998504638670,35.1948013305664060,240.2792053222656200,36.7109184265136700,24.0346698760986330,28.0634899139404300,75,123,96,85,58,15106,2178223652,2185897609,2189378176,2148846509,2166450989,2170140114,2169374646,2149136950,1677,2,16,32027
1334272511,5811,92.0999984741211000,24.0701999664306640,35.1973991394043000,241.6696929931640600,35.6789588928222660,24.0666809082031250,27.9887599945068360,75,124,92,86,58,15109,2181474898,2189582025,2193026596,2149041481,2169286509,2173269156,2171811885,2149364562,1079,2,17,42177
1334272566,5809,89.4700012207031200,24.0998992919921880,35.1964988708496100,242.2088012695312500,34.6673507690429700,24.0980606079101560,27.9524192810058600,74,123,90,84,56,15107,2185196132,2194007177,2197391241,2149290267,2172548306,2176729517,2174450377,2149619968,1146,1,16,30817
1334272621,5807,86.8499984741211000,24.1215000152587900,35.1971015930175800,241.8466033935547000,33.9121398925781250,24.1215000152587900,27.9592208862304700,72,121,92,85,60,15111,2188843794,2197657042,2200494217,2149496621,2175930505,2180371126,2177232786,2149866258,474,1,16,37692
1334272676,5810,84.0599975585937500,24.1558990478515620,35.1935005187988300,241.3910980224609400,32.9063415527343750,24.1527099609375000,27.9670391082763670,71,122,92,87,61,15107,2194557906,2204334052,2207215360,2149919661,2179858596,2184622409,2180482770,2150203949,3511,1,16,47864
1334272733,5806,81.5100021362304700,24.1802997589111330,35.1897010803222660,240.9819946289062500,32.0154113769531250,24.1803607940673830,27.9741706848144530,73,121,93,83,57,15111,2198227355,2208196992,2210304704,2150202934,2183303808,2188228553,2183096914,2150468918,2581,1,17,41441
1334272788,5809,79.4499969482421900,24.1893997192382800,35.1889991760253900,240.8769989013672000,31.7415103912353500,24.1888599395751950,27.9755191802978500,73,120,94,84,59,15109,2203041188,2213296484,2214750491,2150562075,2187668864,2192953728,2186600320,2150833609,1977,1,16,19986
1334272843,5816,77.3799972534179700,24.2180004119873050,35.1813011169433600,240.9940032958984400,31.0566196441650400,24.2101192474365230,27.9617004394531250,71,122,91,85,61,15099,2208691428,2219406875,2220362386,2151002395,2191882422,2197381933,2189767789,2151176612,1779,1,16,62337
1334272898,5809,75.4700012207031200,24.2213993072509770,35.1805000305175800,241.2727050781250000,30.7600002288818360,24.2193298339843750,27.9458103179931640,71,124,90,86,59,15109,2214047945,2225143058,2225920374,2151517001,2196359250,2202104091,2193210276,2151556068,1321,2,16,7023
1334272953,5805,73.6600036621093800,24.2234001159667970,35.1795997619628900,241.6118927001953000,30.6902694702148440,24.2215003967285160,27.9298305511474600,70,120,93,83,58,15106,2217679872,2228489700,2228707081,2151878427,2199973421,2205664987,2195614838,2151800493,851,1,16,58124
1334273008,5809,71.8700027465820300,24.2341003417968750,35.1772003173828100,242.0910034179687500,30.1755199432373050,24.2374801635742200,27.9021606445312500,68,122,93,84,59,15102,2222974144,2233989302,2233653403,2152385801,2205027081,2210756617,2199306166,2152212580,449,2,16,56811
1334273086,5806,68.7300033569336000,24.3071002960205080,35.1413002014160160,242.3880004882812500,27.9713497161865230,24.3059291839599600,27.8617992401123050,64,123,92,85,60,15092,2233318491,2244915574,2243762797,2153555300,2214411684,2219998710,2205575350,2152905828,544,1,16,29727
1334273141,5808,66.0999984741211000,24.3358001708984380,35.1105003356933600,242.3677978515625000,26.8957290649414060,24.3393402099609380,27.8494606018066400,62,121,97,84,58,15096,2240721755,2251797165,2249454006,2154543661,2222303387,2227829915,2210940224,2153531977,191,2,16,42218
1334273196,5808,63.5600013732910160,24.4449005126953120,35.1137008666992200,242.0249023437500000,23.7062091827392580,24.4384498596191400,27.8252296447753900,60,124,91,86,57,15093,2249996544,2261756196,2259152786,2156031597,2230559268,2235968429,2216574765,2154253074,3289,1,16,54006
1334273251,5817,61.1199989318847660,24.5009002685546880,35.1264991760253900,241.9208984375000000,21.9553298950195300,24.4928798675537100,27.8080902099609380,60,123,93,84,57,15096,2258014838,2269809261,2266222912,2157489307,2239086006,2243937225,2221759734,2154969152,2692,2,16,11561
1334273306,5807,58.4399986267089840,24.5251998901367200,35.1343002319335940,241.7575073242187500,20.6667804718017580,24.5329494476318360,27.7994194030761720,60,123,93,86,61,15088,2269304832,2281225170,2277018788,2159486162,2249239680,2253806336,2228353737,2155861156,2678,1,17,34488
1334273361,5807,55.6399993896484400,24.5690994262695300,35.1383018493652340,241.7899017333984400,19.3639698028564450,24.5734691619873050,27.7821407318115230,58,124,93,85,59,15087,2280152941,2291146194,2285945398,2161629769,2260852571,2265198153,2236261229,2156963675,2993,1,16,48894
1334273418,5807,52.7999992370605500,24.6180000305175780,35.1105003356933600,242.1499023437500000,17.7927608489990230,24.6223506927490230,27.7467308044433600,57,123,96,88,56,15086,2293986331,2305073481,2299508507,2164679835,2275269988,2279611190,2246462262,2158353280,3034,2,17,17176
1334273473,5810,50.3100013732910160,24.5832996368408200,35.0217018127441400,242.6893005371093800,18.1714992523193360,24.6105594635009770,27.7276191711425780,54,122,96,86,55,15079,2307281508,2319227218,2314368310,2168472493,2286450907,2290279817,2253834980,2159645348,3446,2,17,37952
1334273528,5806,48.2900009155273440,24.5284004211425780,34.9532012939453100,242.9087982177734400,19.9825706481933600,24.5542297363281250,27.7404098510742200,54,118,94,87,60,15088,2308196790,2317599862,2311105856,2169579712,2294232374,2296687533,2257528192,2160403364,681,1,16,12713
1334273583,5809,46.5600013732910160,24.5076999664306640,34.9188995361328100,243.0704040527343800,20.7777099609375000,24.5294990539550780,27.7430400848388670,55,121,92,85,62,15114,2313839606,2324287460,2317532946,2171743213,2303116288,2304169709,2261774482,2161254592,1564,1,17,10847
1334273638,5807,45.1500015258789060,24.5072002410888670,34.8922004699707000,242.9963073730468800,20.9368400573730470,24.5245494842529300,27.7481594085693360,54,119,95,85,57,15115,2329398436,2342228096,2336870738,2176428717,2315883309,2317171172,2271581769,2163049755,1541,1,16,9390
1334273749,5809,42.5900001525878900,24.4939994812011720,34.8853988647460940,242.7725982666015600,21.4203205108642580,24.5095195770263670,27.7640399932861330,53,118,95,85,54,15105,2332372946,2342747931,2337015058,2179015213,2333215881,2333020132,2282418816,2164950784,546,1,16,23060
1334273804,5806,40.5099983215332000,24.4951992034912100,34.8844985961914060,242.8704986572265600,21.3842201232910160,24.5106391906738280,27.7593498229980470,52,118,94,85,57,15105,2345864027,2358380425,2354581403,2186655734,2348672018,2345873993,2290149842,2166405092,134,2,16,5451
1334273859,5808,38.3600006103515600,24.4950008392334000,34.8819007873535160,243.1096038818359400,21.4287796020507800,24.5092506408691400,27.7492809295654300,52,118,92,85,55,15102,2362602752,2377747245,2375792932,2194760539,2366010285,2360622080,2299427273,2168317339,5,2,17,6664
1334273914,5813,36.2000007629394500,24.4934997558593750,34.8810997009277340,242.9044952392578000,21.4179592132568360,24.5095901489257800,27.7582302093505860,52,117,93,84,57,15104,2368741046,2382885787,2380111296,2199379108,2382274587,2373763309,2307019510,2170162496,3525,1,16,51377
1334273969,5809,34.0900001525878900,24.4946994781494140,34.8810005187988300,243.2088012695312500,21.3757705688476560,24.5109004974365230,27.7443504333496100,52,119,91,86,53,15107,2364256091,2375007232,2369882093,2200323072,2400977810,2389323017,2316276370,2171514048,3391,2,17,8814
1334274024,5811,31.9300003051757800,24.4971008300781250,34.8807983398437500,243.1660003662109400,21.2734909057617200,24.5140800476074220,27.7448997497558600,52,116,93,84,56,15112,2402118720,2420140754,2421119058,2220119286,2418216018,2403984374,2325199890,2174102537,3350,2,17,65508
1334274101,5811,28.3199996948242200,24.4960002899169920,34.8787994384765600,243.2068939208984400,21.3944492340087900,24.5103206634521500,27.7445907592773440,52,116,93,84,57,15109,2399844361,2414640475,2413525522,2231003739,2458747410,2439160146,2348632649,2180859684,3137,1,17,44697
1334274156,5808,25.0799999237060550,24.4972991943359380,34.8783988952636700,243.3632965087890600,21.3033790588378900,24.5131492614746100,27.7366104125976560,50,116,91,85,60,15113,2421850560,2438910308,2440328384,2252782080,2492367021,2467422528,2366604379,2186220525,2975,2,16,61694
